TimeCST,TemperatureF,Dew PointF,Humidity,Sea Level PressureIn,VisibilityMPH,Wind Direction,Wind SpeedMPH,Gust SpeedMPH,PrecipitationIn,Events,Conditions,WindDirDegrees,DateUTC
12:15 AM,48.2,44.6,87,29.93,10.0,ESE,3.5,-,N/A,,Overcast,120,2012-12-07 06:15:00
12:35 AM,48.2,46.4,93,29.93,10.0,Calm,Calm,-,N/A,,Overcast,0,2012-12-07 06:35:00
12:55 AM,50.0,46.4,87,29.93,10.0,Calm,Calm,-,N/A,,Overcast,0,2012-12-07 06:55:00
1:15 AM,50.0,46.4,87,29.93,10.0,Calm,Calm,-,N/A,,Overcast,0,2012-12-07 07:15:00
1:35 AM,50.0,48.2,94,29.93,7.0,Calm,Calm,-,N/A,,Overcast,0,2012-12-07 07:35:00
1:55 AM,51.8,48.2,88,29.93,4.0,Calm,Calm,-,N/A,,Overcast,0,2012-12-07 07:55:00
2:15 AM,50.0,48.2,94,29.93,1.8,NNE,3.5,-,N/A,,Overcast,30,2012-12-07 08:15:00
2:35 AM,50.0,48.2,94,29.93,1.2,East,3.5,-,N/A,,Overcast,80,2012-12-07 08:35:00
2:55 AM,50.0,48.2,94,29.93,1.5,NE,4.6,-,N/A,,Overcast,50,2012-12-07 08:55:00
3:15 AM,48.2,46.4,93,29.92,0.8,ENE,3.5,-,N/A,,Overcast,60,2012-12-07 09:15:00
3:35 AM,48.2,46.4,93,29.92,0.5,Calm,Calm,-,N/A,,Overcast,0,2012-12-07 09:35:00
3:55 AM,48.2,46.4,93,29.91,0.5,ENE,3.5,-,N/A,,Overcast,70,2012-12-07 09:55:00
4:15 AM,48.2,48.2,100,29.90,0.5,East,5.8,-,N/A,,Overcast,90,2012-12-07 10:15:00
4:35 AM,48.2,48.2,100,29.90,0.5,East,4.6,-,N/A,,Overcast,100,2012-12-07 10:35:00
4:55 AM,48.2,48.2,100,29.90,0.5,Calm,Calm,-,N/A,,Overcast,0,2012-12-07 10:55:00
5:15 AM,48.2,48.2,100,29.90,0.5,Calm,Calm,-,N/A,,Overcast,0,2012-12-07 11:15:00
5:35 AM,48.2,48.2,100,29.89,0.5,ESE,4.6,-,N/A,,Overcast,110,2012-12-07 11:35:00
5:55 AM,48.2,48.2,100,29.89,0.2,Calm,Calm,-,N/A,,Overcast,0,2012-12-07 11:55:00
6:15 AM,50.0,48.2,94,29.89,0.5,Calm,Calm,-,N/A,,Overcast,0,2012-12-07 12:15:00
6:35 AM,50.0,48.2,94,29.89,0.2,Calm,Calm,-,N/A,,Overcast,0,2012-12-07 12:35:00
6:55 AM,48.2,48.2,100,29.89,0.2,SSE,4.6,-,N/A,,Overcast,150,2012-12-07 12:55:00
7:15 AM,50.0,48.2,94,29.89,0.2,SSE,4.6,-,N/A,,Overcast,160,2012-12-07 13:15:00
7:35 AM,50.0,48.2,94,29.89,0.2,Calm,Calm,-,N/A,,Overcast,0,2012-12-07 13:35:00
7:55 AM,51.8,50.0,94,29.90,1.5,South,4.6,-,N/A,,Overcast,190,2012-12-07 13:55:00
8:15 AM,51.8,50.0,94,29.90,2.5,Calm,Calm,-,N/A,,Mostly Cloudy,0,2012-12-07 14:15:00
8:35 AM,51.8,51.8,100,29.90,2.5,Calm,Calm,-,N/A,,Mostly Cloudy,0,2012-12-07 14:35:00
8:55 AM,51.8,51.8,100,29.90,4.0,SSE,3.5,-,N/A,,Mostly Cloudy,160,2012-12-07 14:55:00
9:15 AM,53.6,51.8,94,29.90,5.0,SSE,4.6,-,N/A,,Mostly Cloudy,150,2012-12-07 15:15:00
9:35 AM,53.6,53.6,100,29.90,8.0,South,5.8,-,N/A,,Scattered Clouds,190,2012-12-07 15:35:00
9:55 AM,53.6,51.8,94,29.90,10.0,SSW,5.8,-,N/A,,Mostly Cloudy,210,2012-12-07 15:55:00
10:15 AM,53.6,51.8,94,29.90,10.0,SW,5.8,-,N/A,,Overcast,230,2012-12-07 16:15:00
10:35 AM,55.4,51.8,88,29.89,10.0,West,4.6,-,N/A,,Overcast,260,2012-12-07 16:35:00
10:55 AM,57.2,50.0,77,29.89,10.0,SW,8.1,-,N/A,,Mostly Cloudy,220,2012-12-07 16:55:00
11:15 AM,57.2,48.2,72,29.88,10.0,West,5.8,-,N/A,,Scattered Clouds,270,2012-12-07 17:15:00
11:35 AM,57.2,48.2,72,29.87,10.0,West,4.6,-,N/A,,Mostly Cloudy,260,2012-12-07 17:35:00
11:55 AM,57.2,48.2,72,29.87,10.0,WSW,5.8,-,N/A,,Overcast,250,2012-12-07 17:55:00
12:15 PM,59.0,48.2,67,29.86,10.0,WSW,6.9,-,N/A,,Overcast,240,2012-12-07 18:15:00
12:35 PM,59.0,48.2,67,29.85,10.0,SW,6.9,-,N/A,,Overcast,230,2012-12-07 18:35:00
12:55 PM,60.8,48.2,63,29.84,10.0,SW,4.6,-,N/A,,Overcast,220,2012-12-07 18:55:00
1:15 PM,60.8,48.2,63,29.84,10.0,SW,5.8,-,N/A,,Overcast,230,2012-12-07 19:15:00
1:35 PM,60.8,48.2,63,29.83,10.0,WSW,8.1,-,N/A,,Scattered Clouds,250,2012-12-07 19:35:00
1:55 PM,60.8,46.4,59,29.83,10.0,SW,6.9,-,N/A,,Scattered Clouds,230,2012-12-07 19:55:00
2:15 PM,60.8,48.2,63,29.83,10.0,SSW,8.1,-,N/A,,Overcast,210,2012-12-07 20:15:00
2:35 PM,60.8,48.2,63,29.83,10.0,SSW,6.9,-,N/A,,Overcast,210,2012-12-07 20:35:00
2:55 PM,60.8,48.2,63,29.83,10.0,SSW,8.1,-,N/A,,Overcast,210,2012-12-07 20:55:00
3:15 PM,60.8,48.2,63,29.83,10.0,SSW,8.1,-,N/A,,Overcast,210,2012-12-07 21:15:00
3:35 PM,60.8,48.2,63,29.83,10.0,SSW,5.8,-,N/A,,Overcast,210,2012-12-07 21:35:00
3:55 PM,59.0,48.2,67,29.83,10.0,SSW,5.8,-,N/A,,Overcast,210,2012-12-07 21:55:00
4:15 PM,59.0,48.2,67,29.84,10.0,SW,3.5,-,N/A,,Overcast,220,2012-12-07 22:15:00
4:35 PM,57.2,48.2,72,29.84,10.0,SSW,4.6,-,N/A,,Overcast,200,2012-12-07 22:35:00
4:55 PM,57.2,48.2,72,29.85,10.0,South,4.6,-,N/A,,Overcast,190,2012-12-07 22:55:00
5:15 PM,57.2,48.2,72,29.85,10.0,South,5.8,-,N/A,,Overcast,190,2012-12-07 23:15:00
5:35 PM,57.2,48.2,72,29.86,10.0,Calm,Calm,-,N/A,,Overcast,0,2012-12-07 23:35:00
5:55 PM,57.2,46.4,67,29.86,10.0,Calm,Calm,-,N/A,,Overcast,0,2012-12-07 23:55:00
6:15 PM,57.2,46.4,67,29.86,10.0,Calm,Calm,-,N/A,,Overcast,0,2012-12-08 00:15:00
6:35 PM,57.2,46.4,67,29.86,10.0,Calm,Calm,-,N/A,,Overcast,0,2012-12-08 00:35:00
7:15 PM,57.2,46.4,67,29.87,10.0,Calm,Calm,-,N/A,,Overcast,0,2012-12-08 01:15:00
7:35 PM,57.2,46.4,67,29.87,10.0,Calm,Calm,-,N/A,,Overcast,0,2012-12-08 01:35:00
7:55 PM,55.4,48.2,77,29.87,10.0,East,3.5,-,N/A,,Overcast,100,2012-12-08 01:55:00
8:35 PM,55.4,48.2,77,29.88,10.0,Calm,Calm,-,N/A,,Overcast,0,2012-12-08 02:35:00
8:55 PM,55.4,48.2,77,29.88,10.0,Calm,Calm,-,N/A,,Overcast,0,2012-12-08 02:55:00
9:15 PM,55.4,48.2,77,29.87,10.0,Calm,Calm,-,N/A,,Overcast,0,2012-12-08 03:15:00
9:35 PM,55.4,48.2,77,29.87,10.0,Calm,Calm,-,N/A,,Overcast,0,2012-12-08 03:35:00
9:55 PM,55.4,48.2,77,29.87,10.0,Calm,Calm,-,N/A,,Overcast,0,2012-12-08 03:55:00
10:15 PM,55.4,48.2,77,29.87,10.0,Calm,Calm,-,N/A,,Overcast,0,2012-12-08 04:15:00
10:35 PM,55.4,48.2,77,29.87,10.0,Calm,Calm,-,N/A,,Overcast,0,2012-12-08 04:35:00
10:55 PM,53.6,48.2,82,29.87,10.0,Calm,Calm,-,N/A,,Overcast,0,2012-12-08 04:55:00
11:15 PM,53.6,48.2,82,29.87,10.0,Calm,Calm,-,N/A,,Overcast,0,2012-12-08 05:15:00
11:35 PM,53.6,48.2,82,29.87,10.0,NNW,4.6,-,N/A,,Overcast,340,2012-12-08 05:35:00
11:55 PM,53.6,46.4,77,29.87,10.0,NNW,4.6,-,N/A,,Overcast,340,2012-12-08 05:55:00